Location: El Centro
(32.7920°N, 115.5620°W)
Time: 18:01:42
(UTC-07:00)

Hamsat - Visible Passes

Search period start: 27 August 2014 00:00
Search period end: 06 September 2014 00:00
Orbit: 595 x 628 km, 97.6° (Epoch: 26 August)

Date Brightness Start Highest point End Pass type
(mag) Time Alt. Az. Time Alt. Az. Time Alt. Az.
28 Aug ? 05:28:01 10° ENE 05:29:26 11° E 05:30:51 10° ESE visible
29 Aug ? 05:41:15 10° NE 05:44:09 17° E 05:47:02 10° SE visible
04 Sep ? 05:33:29 10° ENE 05:35:45 14° E 05:38:00 10° SE visible
05 Sep ? 05:47:10 10° NE 05:50:27 21° E 05:53:41 10° SE visible
